Regional Weather Roundup
Issued by NWS State College, PA

Home | Current Version | Previous Version | Graphics & Text | Print | Product List | Glossary On
Versions: 1 2 3 4 5 6 7 8 9 10 11 12 13 14 15 16 17 18 19 20 21 22 23 24 25 26 27 28 29 30 31 32 33 34 35 36 37 38 39 40 41 42 43 44 45 46 47 48 49 50
000
ASUS41 KCTP 280810
RWRCTP

REGIONAL WEATHER ROUNDUP
NATIONAL WEATHER SERVICE STATE COLLEGE PA
400 AM EDT THU MAY 28 2015

Note: "fair" indicates few or no clouds below 12,000 feet with no
significant weather and/or obstructions to visibility.

* = STATION THAT DOES NOT REPORT PRECIPITATION /E.G. RAIN...SNOW...ETC/
    THUNDER OR FOG.

PAZ002>004-007>009-013>016-020>023-029>032-280900-
WESTERN PENNSYLVANIA

CITY           SKY/WX    TMP DP  RH WIND       PRES   REMARKS
ERIE           CLOUDY    65  60  84 SW7       30.13R
MEADVILLE      CLOUDY    62  60  93 W6        30.15S FOG
FRANKLIN*      CLOUDY    61  55  82 SW6       30.16R
NEW CASTLE     PTSUNNY   62  62 100 CALM      30.16S
BEAVER COUNTY  NOT AVBL
BUTLER*        PTCLDY    59  57  94 CALM      30.17F
PITTSBURGH INT PTCLDY    64  60  87 CALM      30.15S
PITTSBURGH     PTCLDY    68  57  68 SW8       30.15S
INDIANA*       PTCLDY    61  59  94 CALM      30.20S
LATROBE        PTCLDY    66  64  94 CALM      30.18R
WASHINGTON CO* MOCLDY    61  57  88 CALM      30.18S
$$

PAZ004>006-010>012-017>019-024>028-033>037-041-042-045-046-049>053-280900-
CENTRAL PENNSYLVANIA

CITY           SKY/WX    TMP DP  RH WIND       PRES   REMARKS
BRADFORD       LGT RAIN  59  57  93 VRB3      30.14F
DUBOIS         PTCLDY    61  58  90 S3        30.15F
CLEARFIELD     CLOUDY    63  58  83 CALM      30.17F
JOHNSTOWN      PTCLDY    64  59  83 W8        30.19R
ALTOONA        CLEAR     65  59  81 SW7       30.15F
STATE COLLEGE  PTCLDY    67  60  79 W6        30.15R
WILLIAMSPORT   MOCLDY    64  62  93 W5        30.10R
SELINSGROVE    CLEAR     67  65  93 N3        30.12R
FT INDIANTOWN  FOG       62  62 100 CALM      30.12S VSB 1/2
CAPITAL CITY   PTCLDY    66  64  93 SE3       30.11F
HARRISBURG     MOCLDY    67  64  90 CALM      30.11S
YORK           MOCLDY    65  64  97 CALM      30.12S
$$

PAZ038>040-043-044-047-048-054-055-060>062-067>071-280900-
EASTERN PENNSYLVANIA

CITY           SKY/WX    TMP DP  RH WIND       PRES   REMARKS
SCRANTON       CLEAR     64  61  90 CALM      30.12S FOG
MOUNT POCONO   PTCLDY    64  59  83 W6        30.16S
ALLENTOWN      FOG       64  63  94 CALM      30.13S VSB 1/2
QUAKERTOWN*    NOT AVBL
READING        CLOUDY    67  65  93 CALM      30.11S FOG
LANCASTER      CLOUDY    70  68  93 SW5       30.12S FOG
COATESVILLE    CLOUDY    68  68 100 SW3       30.14S FOG
POTTSTOWN      CLOUDY    69  69 100 CALM      30.14S
BLUE BELL      CLOUDY    70  68  94 CALM      30.13S
DOYLESTOWN     CLOUDY    67  67 100 CALM      30.12F
WILLOW GROVE   NOT AVBL
NORTH PHILA    CLEAR     71  65  81 CALM      30.14S
PHILADELPHIA   PTCLDY    71  67  87 S8        30.13S
$$


USA.gov is the U.S. government's official web portal to all federal, state and local government web resources and services.